www.pogodaiklimat.ru

Погода и климат >> Архив погоды >> Коморские Острова >> Dzaoudzi


ПОГОДА в Dzaoudzi

  • Прогноз погоды в Dzaoudzi
  • Монитор погоды в Dzaoudzi
  • Климат города

АРХИВ ПОГОДЫ в Dzaoudzi

Время (UTC), дата Ветер
(напр.,м/с)
 
Видим.   Явления Облачность Т
(С)
Тd
(С)
f
(%)
Тe
(С)
Тes
(С)
Комфортность P
(гПа)
Po
(гПа)
Тmin
(С)
Tmax
(С)
R
(мм)
R24
(мм)
S
(см)
06 23.04 ЮЗ 6
{9}
20 км 6/6 800 м
[Cu Sc]
+29.0 +22.2 67 +38 +39 очень
душно
1013.7 1014.0 +27.1
09 23.04 Ю 6
{9}
20 км 6/6 800 м
[Cu Sc]
+30.7 +22.8 63 +41 +44 опасность
перегрева
1012.4 1012.0
12 23.04 Ю 6
{8}
20 км 3/3 800 м
[Cu Sc]
+30.2 +22.1 62 +39 +41 очень
душно
1011.1 1011.0
15 23.04 Ю 5
{7}
20 км 3/3 750 м
[Cu Sc]
+27.6 +22.1 72 +36 +36 очень
душно
1012.1 1012.0
18 23.04 З 3
{6}
20 км н/о +27.1 +22.3 75 +35 +35 очень
душно
1013.9 1014.0 +30.8
21 23.04 З 2
{5}
20 км н/о +26.3 +22.2 78 +34 +34 очень
душно
1013.8 1014.0
00 24.04 ЮЗ 3
{4}
20 км н/о +24.9 +21.6 82 +32 +32 очень
душно
1012.2 1012.0
03 24.04 ЮЗ 4
{6}
20 км 1/1 600 м
[Cu Sc]
+26.4 +21.8 76 +34 +34 очень
душно
1013.2 1013.0
06 24.04 Ю 4
{5}
20 км 1/1 900 м
[Cu med, cong]
+29.5 +20.9 60 +37 +42 очень
душно
1014.9 1015.0 +24.0
09 24.04 Ю 5
{7}
20 км 1/1 900 м
[Cu med, cong]
+30.6 +21.7 59 +39 +48 очень
душно
1013.7 1014.0
12 24.04 Ю 4
{7}
20 км 5/5 900 м
[Cu Sc]
+29.7 +20.3 57 +36 +39 очень
душно
1012.5 1013.0
15 24.04 ЮЗ 5
{7}
20 км 1/1 900 м
[Cu Sc]
+27.8 +21.3 68 +35 +35 очень
душно
1013.7 1014.0
18 24.04 ЮЗ 4
{5}
20 км н/о +26.8 +21.8 74 +34 +34 очень
душно
1015.4 1015.0 +30.7
21 24.04 ЮЗ 3
{5}
20 км н/о +26.4 +21.6 75 +34 +34 очень
душно
1015.5 1016.0
00 25.04 ЮЗ 5
{6}
20 км н/о +26.7 +21.7 74 +34 +34 очень
душно
1014.1 1014.0
03 25.04 ЮЗ 5
{6}
20 км 5/5 600 м
[Cu Sc]
+26.7 +21.2 72 +34 +34 очень
душно
1014.0 1014.0
06 25.04 Ю 7
{9}
20 км 3/3 840 м
[Cu med, cong]
+29.6 +22.1 64 +38 +40 очень
душно
1015.1 1015.0 +25.6
09 25.04 Ю 5
{7}
20 км 1/1 900 м
[Cu med, cong]
+30.3 +21.7 60 +39 +48 очень
душно
1013.7 1014.0
12 25.04 Ю 4
{6}
20 км 1/1 900 м
[Cu med, cong]
+30.8 +21.9 59 +39 +44 очень
душно
1012.3 1012.0
15 25.04 Ю 4
{7}
20 км 4/3 840 м
[Cu Sc Ci sp]
+27.8 +21.3 68 +35 +35 очень
душно
1013.2 1013.0
18 25.04 Ю 4
{7}
20 км н/о +27.1 +21.4 71 +34 +34 очень
душно
1014.8 1015.0 +30.9
21 25.04 Ю 4
{6}
20 км н/о +27.1 +21.4 71 +34 +34 очень
душно
1014.9 1015.0
00 26.04 ЮЗ 4
{7}
20 км н/о +26.5 +21.7 75 +34 +34 очень
душно
1013.0 1013.0
03 26.04 Ю 4
{7}
20 км 4/4 750 м
[Cu Sc]
+27.3 +21.6 71 +35 +35 очень
душно
1013.7 1014.0
06 26.04 Ю 5
{7}
20 км 4/4 800 м
[Cu med, cong]
+29.8 +22.0 63 +38 +41 очень
душно
1015.6 1016.0 +26.3
09 26.04 Ю 4
{6}
20 км 1/1 900 м
[Cu med, cong]
+31.0 +22.3 60 +40 +50 очень
душно
1014.4 1014.0
12 26.04 Ю 4
{6}
20 км 3/3 700 м
[Cu med, cong]
+30.7 +22.0 60 +39 +43 очень
душно
1012.7 1013.0
15 26.04 Ю 4
{6}
20 км 1/1 660 м
[Cu hum]
+28.0 +22.0 70 +36 +36 очень
душно
1013.6 1014.0
18 26.04 ЮЗ 6
{7}
20 км н/о +27.3 +22.7 76 +36 +36 очень
душно
1015.5 1016.0 +31.3
21 26.04 ЮЗ 5
{7}
20 км н/о +26.7 +22.5 78 +35 +35 очень
душно
1015.5 1016.0
00 27.04 ЮЗ 6
{7}
20 км н/о +26.7 +23.2 81 +36 +36 очень
душно
1013.9 1014.0
03 27.04 ЮЗ 6
{8}
20 км 4/3 660 м
[Cu Sc Ac trans]
+27.0 +23.7 82 +37 +37 очень
душно
1014.8 1015.0
06 27.04 Ю 5
{8}
20 км 4/4 660 м
[Cu Sc]
+30.0 +23.9 70 +41 +44 опасность
перегрева
1016.5 1017.0 +26.6
09 27.04 Ю 7
{10}
20 км 4/4 660 м
[Cu Sc]
+30.7 +23.9 67 +42 +45 опасность
перегрева
1014.7 1015.0
12 27.04 Ю 8
{11}
20 км 4/4 660 м
[Cu med, cong]
+29.7 +23.6 70 +41 +42 опасность
перегрева
1013.3 1013.0
15 27.04 Ю 6
{9}
20 км н/о +28.4 +23.3 74 +38 +38 очень
душно
1014.4 1014.0
18 27.04 Ю 4
{6}
20 км н/о +27.8 +24.0 80 +39 +39 очень
душно
1015.9 1016.0 +31.1
21 27.04 ЮЗ 4
{5}
20 км н/о +26.9 +24.0 84 +37 +37 очень
душно
1016.0 1016.0
00 28.04 Ю 7
{10}
20 км н/о +27.4 +24.1 82 +38 +38 очень
душно
1014.0 1014.0
03 28.04 Ю 8
{10}
20 км 8/4 660 м
[Cu Sc Ci]
+27.8 +24.6 83 +39 +39 очень
душно
1013.8 1014.0
06 28.04 Ю 4 20 км 8/1 660 м
[Cu Sc Ac trans Cs]
+28.9 +23.6 73 +39 +43 очень
душно
1015.6 1016.0 +26.9
09 28.04 Ю 4
{5}
20 км 6/1 660 м
[Cu Sc Ac trans Ci sp]
+30.8 +24.7 70 +44 +52 опасность
перегрева
1014.8 1015.0
12 28.04 Ю 5
{8}
20 км 8/1 480 м
[Cu Sc Ac trans Ci sp]
+29.9 +24.8 74 +43 +45 опасность
перегрева
1012.8 1013.0
15 28.04 Ю 5
{7}
20 км 9/4 480 м
[Cu Sc Ac trans Cs]
+28.7 +25.1 81 +42 +42 опасность
перегрева
1014.0 1014.0
18 28.04 ЮВ 5
{9}
20 км н/о +28.3 +23.4 75 +38 +38 очень
душно
1015.9 1016.0 +31.0
21 28.04 Ю 6
{8}
20 км н/о +28.0 +24.2 80 +39 +39 очень
душно
1015.6 1016.0
00 29.04 Ю 8
{10}
20 км 9/9 300 м
[]
+28.0 +24.2 80 +39 +39 очень
душно
1014.0 1014.0
03 29.04 ЮВ 9
{13}
15 км {ливн. осадки} 9/1 960 м
[Cu Sc Ac trans Cs]
+28.3 +22.8 72 +38 +38 очень
душно
1014.2 1014.0 1
06 29.04 ЮВ 9 20 км 9/8 1000 м
[Cu Sc Ac trans Cs]
+29.4 +22.1 65 +38 +38 очень
душно
1016.0 1016.0 +25.8 1
09 29.04 ЮВ 9
{12}
20 км 9/5 900 м
[Cu Sc Ac trans Cs]
+30.0 +22.7 65 +40 +40 очень
душно
1015.3 1015.0
12 29.04 ЮВ 7
{11}
20 км 9/5 800 м
[Cu Sc Ac trans Cs]
+29.2 +22.4 67 +38 +39 очень
душно
1013.7 1014.0
15 29.04 ЮВ 6
{8}
20 км 8/5 800 м
[Cu Sc Ac trans Cs]
+27.9 +21.9 70 +36 +36 очень
душно
1014.5 1015.0
18 29.04 Ю 5
{8}
20 км 10/0
[]
+27.8 +22.7 74 +37 +37 очень
душно
1015.6 1016.0 +31.2
21 29.04 Ю 6
{9}
20 км 10/10 600 м
[]
+28.0 +23.4 76 +38 +38 очень
душно
1015.1 1015.0
00 30.04 ЮВ 11
{19}
2100 м сильный дождь 10/10 300 м
[]
+23.3 +21.7 91 +32 +32 очень
душно
1014.7 1015.0 15

 

Местоположение метеостанции Dzaoudzi (Коморские Острова): широта -12.80 долгота 45.28 высота над уровнем моря 7 м.

В архиве по умолчанию представлена погода в Dzaoudzi за последнюю неделю. Архивные данные за месяц целиком и за предыдущие месяцы, начиная с января 2011 года, Вы можете получить, выбрав интересующий диапазон дат из раскрывающегося списка и нажав кнопку "Ввод!".

Внимание! Время в таблицах - всемирное. Для получения местного времени необходимо прибавить поправку, которая в Dzaoudzi равна 3 ч.

Смотрите также архив погоды в соседних городах и на ближайших метеорологических станциях:

Погода в Iles Glorieuses (Реюньон) (254 км)
Погода в Moroni (Коморские Острова) (260 км)
Погода в Fascene (Мадагаскар) (334 км)
Погода в Mahajanga (Мадагаскар) (338 км)
Погода в Antsohihy (Мадагаскар) (372 км)
Погода в Antsiranana (Мадагаскар) (439 км)
Погода в Besalampy (Мадагаскар) (448 км)
Погода в Pemba (Мадагаскар) (515 км)
Погода в Ile Juan De Nova (Реюньон) (543 км)
Погода в Sambava (Мадагаскар) (554 км)

Пояснения к столбцам:

Ветер - указаны скорость ветра в м/с - средняя за 10 мин, порывы в срок и между сроками (в фигурных скобках) и направление, откуда дует ветер: С - северный, СВ - северо-восточный, В - восточный, ЮВ - юго-восточный, Ю - южный, ЮЗ - юго-западный, З - западный, СЗ - северо-западный.
Видимость - горизонтальная дальность видимости в метрах или километрах. При видимости от 1 до 10 км при отсутствии осадков обычно наблюдается дымка, при ухудшении видимости до 1 км и менее - туман. В сухую погоду видимость может ухудшаться дымом, пылью или мглою.
Явления - указаны атмосферные явления, наблюдавшиеся в срок или в последний час перед сроком; фигурными скобками обозначены явления, наблюдавшиеся между сроками (за 1-3 часа до срока); квадратными скобками обозначены град или гололедные отложения с указанием их диаметра в мм.
Облачность - указаны через наклонную черту общая и нижняя облачность в баллах и высота нижней границы облаков в метрах; квадратными скобками обозначены формы облаков: Ci - перистые, Cs - перисто-слоистые, Cc - перисто-кучевые, Ac - высококучевые, As - высокослоистые, Sc - слоисто-кучевые, Ns - слоисто-дождевые, Cu - кучевые, Cb - кучево-дождевые. Подробнее классификацию облаков см. в Атласе облаков (PDF).
T - Температура воздуха - температура, измеренная на высоте 2 м над землей.
Td - Температура точки росы - температура, при понижении до которой содержащийся в воздухе водяной пар достигнет насыщения.
f - Относительная влажность воздуха - влажноcть воздуха, измеренная на высоте 2 м над землей.
Te - Эффективная температура - температура, которую ощущает одетый по сезону человек в тени. Характеристика душности погоды. При расчете учитывается влияние влажности воздуха и скорости ветра на теплоощущения человека.
Tes - Эффективная температура на солнце - температура, которую ощущает человек, с поправкой на солнечный нагрев. Характеристика знойности погоды. Зависит от высоты солнца над горизонтом, облачности и скорости ветра. Ночью, в пасмурную погоду, а также при ветре 12 м/с и более поправка равна нулю.
P - Атмосферное давление - приведенное к уровню моря атмосферное давление.
Po - Атмосферное давление - измеренное на уровне метеостанции атмосферное давление.
Tmin - Минимальная температура - минимум температуры воздуха на высоте 2 м над землей.
Tmax - Максимальная температура - максимум температуры воздуха на высоте 2 м над землей.
R - Количество осадков - Количество выпавших осадков за период времени, мм. При наведении курсора мыши на число - период времени, за который выпало указанное количество осадков.
R24 - Количество осадков - Количество выпавших осадков за 24 часа, мм.
S - Снежный покров - Высота снежного покрова, см. При наведении курсора мыши на число - состояние снежного покрова и степень покрытия местности в баллах.